Location: Clermont
(50.2608°N, 4.3172°E)
Time: 15:27:24
(UTC+00:00)

ERS-1 Rocket - Pass Details

Date: 13 August 2020
Orbit: 753 x 757 km, 98.5° (Epoch: 18 September)

Event Time Altitude Azimuth Distance (km) Brightness Sun altitude
Exits shadow 19:56:10 10° 115° (ESE) 2,318 4.8 -8.0°
Reaches altitude 10° 19:56:17 10° 114° (ESE) 2,281 4.8 -8.0°
Maximum altitude 20:00:20 25° 60° (ENE) 1,489 4.3 -8.6°
Drops below altitude 10° 20:04:24 10° 6° (N) 2,292 5.9 -9.1°
Sets 20:07:02 0° 354° (N) 3,221 6.9 -9.4°
